{"data":{"norad_id":43676,"intl_designator":"2018-084F","name":"KHALIFASAT","alt_names":[],"object_type":"PAYLOAD","status":"ACTIVE","operator":null,"country":"UAE","launch_date":"2018-10-29","launch_site_code":"TANSC","launch_vehicle":null,"mission":null,"orbit_class":"UNKNOWN","rcs_meters":null,"size_class":null,"mass_kg":null,"dimensions":null,"purposes":[],"wikipedia_slug":null,"has_3d_model":false,"image_url":null,"decayed_at":null,"tle_current":{"epoch":"2026-09-20T03:53:53.306592Z","epoch_age_seconds":84025,"freshness":"FRESH","line1":"1 43676U 18084F   26263.16242253  .00000266  00000+0  25582-4 0  9990","line2":"2 43676  98.0830  89.4442 0005808 160.1233 200.0217 15.01559291430023","mean_motion":15.01559291,"eccentricity":0.0005808,"inclination_deg":98.083,"raan_deg":89.4442,"arg_perigee_deg":160.1233,"mean_anomaly_deg":200.0217,"bstar":2.5582e-5,"rev_number":43002,"period_min":95.900309007512,"perigee_km":558.05659416698,"apogee_km":566.11835891893,"semimajor_km":6940.224476543,"source":"CELESTRAK","updated_at":"2026-09-20T09:00:14.367376Z"}}}